Location: Newark
(49.7314°N, 3.6506°E)
Time: 00:28:43
(UTC+00:00)

ISS - Visible Passes

Search period start: 26 September 2020 00:00
Search period end: 06 October 2020 00:00
Orbit: 419 x 420 km, 51.6° (Epoch: 26 September)

Date Brightness Start Highest point End Pass type
(mag) Time Alt. Az. Time Alt. Az. Time Alt. Az.
26 Sep -3.5 18:09:35 10° W 18:12:56 70° NNW 18:16:18 10° ENE visible
26 Sep -3.2 19:46:34 10° WNW 19:49:28 57° NW 19:49:28 57° NW visible
27 Sep -3.5 18:59:09 10° WNW 19:02:30 61° N 19:03:50 32° ENE visible
27 Sep -0.8 20:36:02 10° WNW 20:36:47 16° WNW 20:36:47 16° WNW visible
28 Sep -3.4 18:11:42 10° W 18:15:02 60° N 18:18:11 11° E visible
28 Sep -2.8 19:48:36 10° WNW 19:51:09 48° W 19:51:09 48° W visible
29 Sep -3.8 19:01:11 10° WNW 19:04:34 80° NNE 19:05:30 44° E visible
29 Sep -0.5 20:38:10 10° W 20:38:28 12° W 20:38:28 12° W visible
30 Sep -3.6 18:13:44 10° WNW 18:17:06 68° N 18:19:53 14° E visible
30 Sep -2.2 19:50:37 10° WNW 19:52:51 32° WSW 19:52:51 32° WSW visible
01 Oct -3.5 19:03:08 10° WNW 19:06:29 62° SSW 19:07:15 45° SSE visible
02 Oct -3.7 18:15:40 10° WNW 18:19:04 82° SSW 18:21:42 16° ESE visible
02 Oct -1.4 19:52:54 10° W 19:54:40 19° WSW 19:54:40 19° WSW visible
03 Oct -2.3 19:05:12 10° W 19:08:12 30° SW 19:09:10 26° S visible
04 Oct -2.8 18:17:36 10° WNW 18:20:50 43° SSW 18:23:45 12° SE visible
05 Oct -1.1 19:07:48 10° WSW 19:09:43 14° SW 19:11:24 11° S visible
